Regional Weather Roundup
Issued by NWS Jackson, KY

Home | Current Version | Previous Version | Graphics & Text | Print | Product List | Glossary On
Versions: 1 2 3 4 5 6 7 8 9 10 11 12 13 14 15 16 17 18 19 20 21 22 23 24 25 26 27 28
000
ASUS43 KJKL 240610
RWRJKL

EAST KENTUCKY HOURLY WEATHER ROUNDUP
NATIONAL WEATHER SERVICE JACKSON KY
100 AM EST SAT FEB 24 2018

NOTE: "FAIR" INDICATES FEW OR NO CLOUDS BELOW 12,000 FEET WITH
NO SIGNIFICANT WEATHER AND/OR OBSTRUCTIONS TO VISIBILITY.

* THESE REPORTS ARE NOT UNDER NWS QUALITY CONTROL AND MAY NOT
  REPORT WEATHER SUCH AS PRECIPITATION AND FOG.

KYZ079-080-083-085-087-088-110-112-115-119-120-240700
...EASTERN KENTUCKY...

CITY           SKY/WX    TMP DP  RH WIND       PRES   REMARKS
JACKSON        CLOUDY    62  58  86 NW8       30.18S
6HR MIN TEMP:  62; 6HR MAX TEMP:  72; 6HR PCP:  0.01;

LONDON           N/A     60  58  92 SE3       30.17F
6HR MIN TEMP:  60; 6HR MAX TEMP:  71;

SOMERSET*      CLOUDY    64  55  72 MISG      30.17F
MONTICELLO*    CLOUDY    67  58  72 VRB5      30.18F
6HR MIN TEMP:  57; 6HR MAX TEMP:  67;

WILLIAMSBURG*    N/A     63  57  82 SE5       30.19S
MIDDLESBORO*     N/A     68  55  63 S7        30.20F
6HR MIN TEMP:  57; 6HR MAX TEMP:  69;

HARLAN APT*      N/A     57  54  88 CALM      30.21F
PIKE CO APT*   CLOUDY    64  58  81 SE5       30.19S
BIG SANDY APT* MOCLDY    62  62 100 SE3       30.18S
6HR MIN TEMP:  60; 6HR MAX TEMP:  73;

MOREHEAD APT*  CLOUDY    59  57  94 N6        30.19S FOG
ASHLAND*       LGT RAIN  54  54 100 CALM      30.19R FOG
$$

KYZ035-036-041-042-044-050-067-078-099-240700
...CENTRAL KENTUCKY...

CITY           SKY/WX    TMP DP  RH WIND       PRES   REMARKS
MT STERLING*   CLOUDY    57  57 100 CALM      30.21R FOG
FLEMING/MASON* MOCLDY    56  56  99 NW3       30.20S
DANVILLE*      FOG       57  57 100 NE5       30.19S VSB 3/4
LEXINGTON      CLOUDY    60  57  89 NE3       30.18S
6HR MIN TEMP:  59; 6HR MAX TEMP:  65; 6HR PCP:  0.01;

FRANKFORT      CLOUDY    57  54  89 E3        30.16F
6HR MIN TEMP:  57; 6HR MAX TEMP:  64; 6HR PCP:  0.20;

LOUISVILLE     CLOUDY    55  51  86 VRB5      30.17S
6HR MIN TEMP:  54; 6HR MAX TEMP:  60; 6HR PCP:  0.01;

LEBANON*       CLOUDY    57  57 100 CALM      30.17F FOG
GLASGOW*       MOCLDY   N/A N/A N/A CALM      30.17F FOG
BOWLING GREEN  CLOUDY    58  58 100 CALM      30.18R FOG
6HR MIN TEMP:  57; 6HR MAX TEMP:  65; 6HR PCP:  0.10;

$$

KYZ091>093-OHZ055-061-077-WVZ005-015-034-035-042-240700
...SOUTHERN OHIO/WEST VIRGINIA...

CITY           SKY/WX    TMP DP  RH WIND       PRES   REMARKS
COVINGTON      LGT RAIN  52  51  97 N3        30.18S
COLUMBUS       CLOUDY    50  48  93 N13       30.18F
DAYTON         CLOUDY    47  46  97 N10       30.20F
WILMINGTON     CLOUDY    51  51 100 N7        30.18S
HUNTINGTON     CLOUDY    59  56  89 N5        30.17S
CHARLESTON     LGT RAIN  56  56 100 CALM      30.17F
BECKLEY          N/A     57  52  83 S7        30.22F
BLUEFIELD        N/A     60  50  69 CALM      30.26F
LOGAN CO APT*  CLOUDY    63  57  82 CALM      30.20S
$$

VAZ002-007-008-TNZ017-027-036-066-071-240700
...SOUTHWEST VIRGINIA/EAST TENNESSEE...

CITY           SKY/WX    TMP DP  RH WIND       PRES   REMARKS
WISE*            N/A     63  54  72 S8        30.26F
JONESVILLE*      N/A     55  54  94 CALM      30.24F
ABINGDON*      MOCLDY    62  55  77 CALM      30.25S
BRISTOL          N/A     59  54  83 CALM      30.23F
SEVIERVILLE*   PTCLDY    59  54  82 CALM      30.20F
KNOXVILLE      CLOUDY    65  55  70 CALM      30.19F
LAFOLLETTE*    CLEAR     64  55  72 SW5       30.23F
OAK RIDGE        N/A     63  58  83 CALM      30.21F
CROSSVILLE     MOCLDY    65  55  70 S7        30.22F
NASHVILLE      CLOUDY    61  57  87 N7        30.17F
$$

...KEY TO REMARKS...
VSB - VISIBILITY IN MILES
WCI - WIND CHILL INDEX
HX  - HEAT INDEX

$$




USA.gov is the U.S. government's official web portal to all federal, state and local government web resources and services.